TimeMST,TemperatureF,Dew PointF,Humidity,Sea Level PressureIn,VisibilityMPH,Wind Direction,Wind SpeedMPH,Gust SpeedMPH,PrecipitationIn,Events,Conditions,WindDirDegrees,DateUTC
12:56 AM,35.1,30.0,82,30.07,-9999.0,WNW,12.7,-,N/A,,Unknown,290,2012-11-06 07:56:00
1:56 AM,33.1,28.9,85,30.08,-9999.0,West,11.5,-,N/A,,Unknown,270,2012-11-06 08:56:00
2:56 AM,30.9,27.0,85,30.10,-9999.0,West,11.5,-,N/A,,Unknown,280,2012-11-06 09:56:00
3:56 AM,30.9,27.0,85,30.10,-9999.0,WNW,12.7,-,N/A,,Unknown,290,2012-11-06 10:56:00
4:56 AM,30.9,27.0,85,30.12,-9999.0,WNW,12.7,-,N/A,,Unknown,290,2012-11-06 11:56:00
5:56 AM,30.9,28.0,89,30.14,-9999.0,WNW,18.4,-,N/A,,Unknown,290,2012-11-06 12:56:00
6:56 AM,28.9,26.1,89,30.16,-9999.0,West,10.4,-,N/A,,Unknown,280,2012-11-06 13:56:00
7:56 AM,33.1,28.0,82,30.18,-9999.0,West,11.5,-,N/A,,Unknown,280,2012-11-06 14:56:00
8:56 AM,41.0,30.0,65,30.19,-9999.0,WNW,13.8,-,N/A,,Unknown,290,2012-11-06 15:56:00
9:56 AM,46.9,28.0,48,30.18,-9999.0,NW,19.6,26.5,N/A,,Unknown,310,2012-11-06 16:56:00
10:56 AM,48.9,26.1,41,30.17,-9999.0,WNW,21.9,28.8,N/A,,Unknown,300,2012-11-06 17:56:00
11:56 AM,51.1,26.1,38,30.14,-9999.0,NW,17.3,-,N/A,,Unknown,320,2012-11-06 18:56:00
12:56 PM,53.1,26.1,35,30.13,-9999.0,WNW,15.0,32.2,N/A,,Unknown,300,2012-11-06 19:56:00
1:56 PM,53.1,25.0,34,30.12,-9999.0,NW,17.3,25.3,N/A,,Unknown,310,2012-11-06 20:56:00
2:56 PM,53.1,25.0,34,30.12,-9999.0,WNW,15.0,-,N/A,,Unknown,300,2012-11-06 21:56:00
3:56 PM,48.0,26.1,42,30.13,-9999.0,NW,9.2,-,N/A,,Unknown,320,2012-11-06 22:56:00
4:56 PM,44.1,25.0,47,30.13,-9999.0,NW,8.1,-,N/A,,Unknown,320,2012-11-06 23:56:00
5:56 PM,45.0,25.0,46,30.12,-9999.0,NW,3.5,-,N/A,,Unknown,310,2012-11-07 00:56:00
6:56 PM,39.0,25.0,57,30.12,-9999.0,West,4.6,-,N/A,,Unknown,260,2012-11-07 01:56:00
7:56 PM,36.0,25.0,64,30.10,-9999.0,Calm,Calm,-,N/A,,Unknown,0,2012-11-07 02:56:00
8:56 PM,37.0,25.0,62,30.08,-9999.0,Calm,Calm,-,N/A,,Unknown,0,2012-11-07 03:56:00
9:56 PM,37.0,25.0,62,30.06,-9999.0,South,3.5,-,N/A,,Unknown,190,2012-11-07 04:56:00
10:56 PM,37.0,25.0,62,30.04,-9999.0,South,5.8,-,N/A,,Unknown,180,2012-11-07 05:56:00
11:56 PM,35.1,25.0,67,30.03,-9999.0,SE,8.1,-,N/A,,Unknown,140,2012-11-07 06:56:00